STARLINK-30540

operational
NORAD ID: 58002 Int'l Des: 2023-153 Owner: SPXS Country: US Constellation: starlink
LEOCIRCULAR

关于 STARLINK-30540

正在加载描述...

实时位置

正在加载3D地球...

即将过境

高度历史

Altitude vs Time

uPlot chart will show altitude changes over time

两行轨道根数

1 58002U 23153M 25251.55721754 -.00000238 00000-0 -25153-5 0 9996
2 58002 43.0030 338.8429 0001331 272.4845 87.5846 15.02533505107379
Epoch: Sep 8, 2025 • Age: 21 hours

当前状态

高度 558.5 km
速度 7.58 km/s
星下点 3.22°N, 163.16°W
发射日期 Oct 5, 2023
运行时间 1.9 years
类型 internet

技术详情

分类 Payload
质量 730.00 kg
干质量 700.00 kg
总质量 730.00 kg
长度 0.30 m
直径 4.10 m
跨度 29.00 m
形状 Box + pan
制造商 SPXS
平台类型 Starlink V2M
阶段状态 In Orbit
所有者/国家 SPXS/US

大型星座

Loading constellations...